Regional Weather Roundup
Issued by NWS

Home | Current Version | Previous Version | Graphics & Text | Print | Product List | Glossary On
Versions: 1 2 3 4 5 6 7 8 9 10 11 12 13 14 15 16 17 18 19 20 21 22 23 24 25 26 27 28 29 30 31 32 33 34 35 36 37 38 39 40 41 42 43 44 45 46 47 48 49 50
000
ASUS43 KLOT 201503
RWRIL

ILLINOIS REGIONAL WEATHER ROUNDUP
NATIONAL WEATHER SERVICE CHICAGO/ROMEOVILLE IL
900 AM CST MON FEB 20 2017

NOTE: "FAIR" INDICATES FEW OR NO CLOUDS BELOW 12,000 FEET WITH NO
SIGNIFICANT WEATHER AND/OR OBSTRUCTIONS TO VISIBILITY.

* THESE STATIONS ARE NOT UNDER NWS QUALITY CONTROL. THEY ALSO MAY NOT
  REPORT WEATHER SUCH AS PRECIPITATION OR FOG.

ILZ001-002-007-009-015-016-024-201600-
NORTHWEST ILLINOIS

CITY           SKY/WX    TMP DP  RH WIND       PRES   REMARKS
MOLINE         CLOUDY    53  49  86 SE12      30.01S FOG
STERLING*      CLOUDY    48  47  96 SE7       30.07R FOG
SAVANNA*       CLOUDY    49  48  97 SE10      30.04R FOG
$$

ILZ003-004-008-010-011-017-018-201600-
NORTH CENTRAL ILLINOIS

CITY           SKY/WX    TMP DP  RH WIND       PRES   REMARKS
ROCKFORD       CLOUDY    50  46  86 SE14      30.08F FOG
FREEPORT*      PTSUNNY   47  46  93 SE8       30.07R FOG
DE KALB*       FOG       47  47  99 SE14      30.09F VSB 1
PERU*          CLOUDY    49  46  90 SE12      30.10R FOG
$$

ILZ005-006-012>014-019>023-201600-
NORTHEAST ILLINOIS

CITY           SKY/WX    TMP DP  RH WIND       PRES   REMARKS
CHICAGO-OHARE  CLOUDY    52  47  83 S12       30.12F HAZE
CHICAGO-MIDWAY CLOUDY    53  46  77 S7        30.13F FOG
AURORA         CLOUDY    50  46  86 SE13      30.10F FOG
LANSING*       CLOUDY    52  49  89 SE10      30.15S FOG
JOLIET*        MOSUNNY   50  48  93 SE7       30.13F FOG
WAUKEGAN       PTSUNNY   45  41  86 SE10      30.11F FOG
DUPAGE AIRPORT CLOUDY    52  48  86 SE9       30.10F FOG
KANKAKEE*      CLOUDY    51  48  90 SE10      30.14S FOG
WHEELING       CLOUDY    52  46  80 S8        30.13F HAZE
MORRIS*        CLOUDY    50  46  87 SE8       30.10F FOG
ROMEOVILLE*    CLOUDY    50  49  97 S10       30.12S FOG
NORTHERLY ISL    N/A     43  40  89 S2          N/A
$$

LMZ740>746-201600-
SOUTHERN LAKE MICHIGAN

STATION/POSITION SKY/WX   TEMP    WIND        PRES    VSBY  WAVE
                          AIR SEA DIR/SP/G                  HT/PER
                          (F)     (DEG/KT/KT) (MB)    (MI)  (FT/S)
HARRISON CRIB              42     140/ 11/ 11   N/A
BURNHAM HARBOR             43     130/  2/  3   N/A
CALUMET HARBOR             50     130/  6/  9 1020.0F
BURNS HARBOR               52     160/  7/ 14 1021.7F
MICHIGAN CITY              51     130/  9/ 10   N/A
$$

ILZ025>027-034>036-040-047-049-050-058-095>099-201600-
WEST-CENTRAL ILLINOIS

CITY           SKY/WX    TMP DP  RH WIND       PRES   REMARKS
QUINCY         CLOUDY    57  52  83 SE15      29.96F
GALESBURG*     CLOUDY    51  51 100 SE10      30.02F FOG
MACOMB*        CLOUDY    53  52  97 SE12      30.03F FOG
JACKSONVILLE*  PTSUNNY   55  51  86 SE16      30.03F
PITTSFIELD*    PTSUNNY   55  52  91 SE13      30.02F FOG
$$

ILZ028>032-037-038-041>044-048-051>054-059>061-201600-
CENTRAL ILLINOIS

CITY           SKY/WX    TMP DP  RH WIND       PRES   REMARKS
PONTIAC        CLOUDY    51  50  98 SE15      30.13R FOG
BLOOMINGTON    CLOUDY    51  50  96 SE16      30.12R FOG
DECATUR        MOSUNNY   51  49  92 SE12      30.12R FOG
PEORIA         MOSUNNY   53  51  93 SE10      30.07F FOG
LACON*         CLOUDY    51  51  98 SE7       30.07S FOG
LINCOLN*       MOSUNNY   57  54  91 SE9       30.09S FOG
SPRINGFIELD    MOSUNNY   58  50  75 SE17      30.07F
TAYLORVILLE    MOSUNNY   54  51  89 SE14      30.09F FOG
$$

ILZ033-039-045-046-055>057-062-063-201600-
EAST-CENTRAL ILLINOIS

CITY           SKY/WX    TMP DP  RH WIND       PRES   REMARKS
CHAMPAIGN      FOG       49  47  93 SE12      30.14R VSB 1/4
RANTOUL*       CLOUDY    50  50  99 SE10      30.15R FOG
MATTOON        CLOUDY    49  49 100 S9        30.13R FOG
PARIS*         MOSUNNY   48  48 100 SE7       30.17R FOG
$$

ILZ079-100>102-201600-
SOUTHWEST ILLINOIS

CITY           SKY/WX    TMP DP  RH WIND       PRES   REMARKS
ALTON          PTSUNNY   55  52  88 SE10      30.07S
BELLEVILLE     SUNNY     56  56 100 E8        30.07F
CAHOKIA*       CLOUDY    59  51  75 SE12      30.05F
SPARTA*        SUNNY     55  51  87 SE10      30.10S
$$

ILZ064>066-069>071-074>076-080>082-084>086-088>090-092>094-201600-
SOUTH-CENTRAL ILLINOIS

CITY           SKY/WX    TMP DP  RH WIND       PRES   REMARKS
CARBONDALE     PTSUNNY   54  53  97 E6        30.11S
CAIRO*         CLOUDY    52  52 100 E3        30.12S
EFFINGHAM*     MOSUNNY   52  52  97 E10       30.16S FOG
MARION         PTSUNNY   55  54  94 SE5       30.13R
MT. VERNON     PTSUNNY   53  50  89 SE3       30.13S
CENTRALIA*     MOSUNNY   56  52  88 SE7       30.11S
SALEM*         PTSUNNY   55  50  83 SE8       30.12S HAZE
METROPOLIS*    CLOUDY    56  52  86 CALM      30.13S
$$

ILZ067-068-072-073-078-083-087-091-201600-
SOUTHEAST ILLINOIS

CITY           SKY/WX    TMP DP  RH WIND       PRES   REMARKS
LAWRENCEVILLE  MOSUNNY   50  48  93 E3        30.17R FOG
FLORA*         CLOUDY    52  50  95 SE7       30.15S FOG
FAIRFIELD*     CLOUDY    54  52  92 SE5       30.14S
HARRISBURG*    CLOUDY    53  51  94 SE3       30.14S FOG
ROBINSON*      CLOUDY    47  47 100 SE6       30.18R FOG
CARMI*         MOSUNNY   52  52  99 SE8       30.15S FOG
$$

ABBREVIATIONS USED IN REMARKS
   TC - TEMPERATURE IN CELSIUS
  WCI - WIND CHILL INDEX
   HX - HEAT INDEX
  VSB - VISIBILITY
$$





USA.gov is the U.S. government's official web portal to all federal, state and local government web resources and services.